Regional Weather Roundup
Issued by NWS Kansas City/Pleasant Hill, MO

Home | Current Version | Previous Version | Graphics & Text | Print | Product List | Glossary Off
Versions: 1 2 3 4 5 6 7 8 9 10 11 12 13 14 15 16 17 18 19 20 21 22 23 24 25 26 27 28 29 30 31 32 33 34 35 36 37 38 39 40 41 42 43 44 45 46 47 48 49 50

000
ASUS43 KEAX 300104
RWREAX

WEATHER ROUNDUP FOR EASTERN KANSAS AND NORTHWEST MISSOURI
NATIONAL WEATHER SERVICE KANSAS CITY/PLEASANT HILL MO
700 PM CST THU JAN 29 2015

KSZ040-057-103>105-MOZ028-029-037-043-300200-
...KANSAS CITY METROPOLITAN AREA...

CITY           SKY/WX    TMP DP  RH WIND       PRES   REMARKS
K.C. INTL      CLEAR     32  24  72 NW6       30.47R WCI  26
K.C. DOWNTOWN  CLEAR     37  24  59 N3        30.48R
LEES SUMMIT    FAIR      35  24  64 N8        30.47R WCI  29
OLATHE - IXD   CLEAR     33  24  69 NW9       30.48R WCI  25
OLATHE - OJC   CLEAR     37  24  59 N9        30.46R WCI  30
LAWRENCE       CLEAR     32  23  69 N8        30.50R WCI  25

$$

MOZ001>008-011>017-020>025-030>033-038>040-044>046-053-054-300200-
...NORTHERN AND CENTRAL MISSOURI...

CITY           SKY/WX    TMP DP  RH WIND       PRES   REMARKS
ST. JOSEPH     CLEAR     31  23  72 NW5       30.50R WCI  26
MOSBY          CLEAR     36  27  69 NW9       30.48R WCI  29
WARRENSBURG    MOCLDY    36  27  69 NW10G18   30.47R WCI  28
WHITEMAN AFB   CLOUDY    38  25  61 NW14      30.45R WCI  29
CLINTON        MOCLDY    36  28  75 NW6       30.47R WCI  31
SEDALIA        CLOUDY    38  26  62 NW14      30.45R WCI  30
WARSAW         NOT AVBL
MARSHALL       CLOUDY    41  28  60 NW18      30.44R WCI  32
CHILLICOTHE      N/A     36  24  62 NW12G23   30.47R WCI  28
MOBERLY        CLOUDY    37  25  60 NW13G23   30.42R WCI  29
KIRKSVILLE     CLOUDY    34  23  64 NW16G25   30.42R WCI  24

$$

MOZ041-047>049-056>058-063>065-088>090-097-300200-
...EASTERN AND SOUTHERN MISSOURI...

CITY           SKY/WX    TMP DP  RH WIND       PRES   REMARKS
ST. LOUIS INTL CLOUDY    38  27  64 NW24G32   30.36R WCI  27
SPIRIT OF STL  CLOUDY    38  27  64 NW17G24   30.37R WCI  28
COLUMBIA       CLOUDY    37  26  64 NW18G29   30.41R WCI  27
JEFFERSON CITY CLOUDY    40  26  57 NW16      30.42R WCI  31
MEXICO         CLOUDY    37  30  75 NW13G20   30.39R WCI  29
HANNIBAL       CLOUDY    37  25  60 NW16G22   30.39R WCI  28
ROLLA          CLOUDY    38  27  64 NW12G22   30.37R WCI  30
LEBANON        MOCLDY    39  27  60 NW8G18    30.41R WCI  34
OSAGE BEACH    CLOUDY    39  25  56 NW7G16    30.42R WCI  34
SPRINGFIELD    CLEAR     35  27  72 NW10      30.42R WCI  27
BRANSON        PTCLDY    37  28  70 NW12      30.42R WCI  30
NEVADA         CLEAR     36  27  69 N9        30.48R WCI  29
JOPLIN         CLEAR     37  27  67 N5        30.47R WCI  33
WEST PLAINS    CLOUDY    39  27  62 NW10      30.39R WCI  32

$$

IAZ060-094-KSZ022-034>040-054-083-096-NEZ052-066-093-300200-
...KANSAS...SOUTHEAST NEBRASKA AND IOWA...

CITY           SKY/WX    TMP DP  RH WIND       PRES   REMARKS
TOPEKA         CLEAR     35  24  64 N7        30.51R WCI  29
MANHATTAN      CLEAR     33  25  72 NW3       30.50R
EMPORIA        CLEAR     32  24  72 N6        30.48R WCI  26
CHANUTE        CLEAR     36  27  69 N9        30.48R WCI  29
WICHITA        CLEAR     43  25  49 N8        30.49R
OMAHA          MOCLDY    34  24  67 N14       30.49R WCI  25
LINCOLN        CLEAR     30  22  72 NW3       30.52R
FALLS CITY     CLEAR     30  22  72 NW5       30.50R WCI  25
LAMONI         CLOUDY    32  23  69 NW14G21   30.44R WCI  22
DES MOINES     CLOUDY    32  21  64 N14G21    30.45R WCI  22

$$




USA.gov is the U.S. government's official web portal to all federal, state and local government web resources and services.